Location: Burtsch�tz
(51.0528°N, 12.1764°E)
Time: 01:49:39
(UTC+00:00)

Cosmos 1340 - Pass Details

Date: 29 October 2020
Orbit: 501 x 504 km, 81.2° (Epoch: 23 November)

Event Time Altitude Azimuth Distance (km) Brightness Sun altitude
Rises 17:19:56 0° 343° (NNW) 2,619 6.5 -14.6°
Reaches altitude 10° 17:22:06 10° 339° (NNW) 1,729 5.6 -14.9°
Maximum altitude 17:25:47 52° 263° (W) 639 3.5 -15.5°
Drops below altitude 10° 17:29:27 10° 186° (S) 1,715 5.4 -16.1°
Sets 17:31:35 0° 182° (S) 2,595 6.3 -16.4°
